TimeEDT,TemperatureF,Dew PointF,Humidity,Sea Level PressureIn,VisibilityMPH,Wind Direction,Wind SpeedMPH,Gust SpeedMPH,PrecipitationIn,Events,Conditions,WindDirDegrees,DateUTC
12:53 AM,39.0,36.0,89,30.25,10.0,North,5.8,-,N/A,,Clear,350,2011-10-02 04:53:00
1:53 AM,37.0,35.1,93,30.26,10.0,North,3.5,-,N/A,,Clear,350,2011-10-02 05:53:00
2:53 AM,39.0,36.0,89,30.25,10.0,NNW,3.5,-,N/A,,Clear,340,2011-10-02 06:53:00
3:53 AM,37.0,34.0,89,30.25,10.0,North,4.6,-,N/A,,Clear,350,2011-10-02 07:53:00
4:53 AM,36.0,33.1,89,30.25,10.0,NNW,3.5,-,N/A,,Clear,340,2011-10-02 08:53:00
5:53 AM,35.6,32.0,87,30.23,10.0,NW,4.6,-,N/A,,Clear,310,2011-10-02 09:53:00
6:53 AM,35.1,32.0,89,30.25,10.0,NNW,3.5,-,N/A,,Clear,330,2011-10-02 10:53:00
7:53 AM,37.0,33.1,86,30.26,10.0,North,3.5,-,N/A,,Clear,350,2011-10-02 11:53:00
8:53 AM,37.9,34.0,86,30.27,10.0,North,6.9,-,N/A,,Clear,350,2011-10-02 12:53:00
9:53 AM,46.0,36.0,68,30.26,10.0,NNW,5.8,-,N/A,,Clear,340,2011-10-02 13:53:00
10:53 AM,50.0,35.1,57,30.25,10.0,NNW,11.5,-,N/A,,Clear,330,2011-10-02 14:53:00
11:53 AM,53.6,33.8,47,30.23,10.0,NNW,13.8,19.6,N/A,,Clear,340,2011-10-02 15:53:00
12:53 PM,55.9,37.0,49,30.23,10.0,North,11.5,21.9,N/A,,Clear,360,2011-10-02 16:53:00
1:53 PM,60.1,37.9,44,30.21,10.0,NNW,11.5,-,N/A,,Clear,330,2011-10-02 17:53:00
2:53 PM,61.0,36.0,39,30.17,10.0,North,11.5,19.6,N/A,,Clear,350,2011-10-02 18:53:00
3:53 PM,62.1,36.0,38,30.15,10.0,NNW,13.8,-,N/A,,Clear,330,2011-10-02 19:53:00
4:53 PM,60.1,42.1,51,30.14,10.0,WNW,10.4,-,N/A,,Clear,300,2011-10-02 20:53:00
5:53 PM,55.9,41.0,57,30.15,10.0,NW,12.7,-,N/A,,Clear,320,2011-10-02 21:53:00
6:53 PM,54.0,39.0,57,30.14,10.0,NW,11.5,-,N/A,,Clear,310,2011-10-02 22:53:00
7:53 PM,51.1,37.9,61,30.16,10.0,NNW,5.8,-,N/A,,Clear,330,2011-10-02 23:53:00
8:53 PM,48.2,37.4,66,30.13,10.0,NW,5.8,-,N/A,,Clear,320,2011-10-03 00:53:00
9:53 PM,45.0,37.0,74,30.16,10.0,NNW,3.5,-,N/A,,Clear,340,2011-10-03 01:53:00
10:53 PM,46.0,37.0,71,30.15,10.0,North,5.8,-,N/A,,Clear,360,2011-10-03 02:53:00
11:53 PM,43.0,36.0,76,30.17,10.0,Calm,Calm,-,N/A,,Clear,0,2011-10-03 03:53:00